Location: Unspecified
(49.8670°N, 0.0000°E)
Time: 22:11:20
(UTC+00:00)

S-56A Canister/Altair - Pass Details

Date: 24 June 2019
Orbit: 632 x 2500 km, 38.9° (Epoch: 19 July)

Event Time Altitude Azimuth Distance (km) Brightness Sun altitude
Rises 16:32:15 0° 245° (WSW) 5,084 12.6 32.0°
Reaches altitude 10° 16:36:23 10° 237° (WSW) 3,770 12.0 31.4°
Maximum altitude 16:44:22 34° 178° (S) 1,828 9.7 30.1°
Drops below altitude 10° 16:50:00 10° 114° (ESE) 2,630 9.9 29.2°
Sets 16:52:23 0° 105° (ESE) 3,388 10.3 28.8°
